Other Public Products
Issued by NWS Charleston, SC

Home | Current Version | Previous Version | Text Only | Print | Product List | Glossary On
Versions: 1 2 3 4 5 6 7 8 9 10 11 12 13 14 15 16 17 18 19 20 21 22 23 24 25 26 27 28 29 30 31 32 33 34 35 36 37 38 39 40 41 42 43 44 45 46 47 48 49 50
000
FPUS82 KCHS 210827
OPUCHS

TEST...KCHS/KSAV Gateway Observations...TEST
National Weather Service Charleston SC
400 AM EDT SAT APR 21 2018

NOTE: "fair" indicates few or no clouds below 12,000 feet with no
significant weather and/or obstructions to visibility.

SCZ050-WAZ558-NCZ071-TXZ119-213-PAZ071-DCZ001-FLZ074-172-MI076-
NYZ176-178-MAZ016-IL014-TNZ027-NJZ106-GAZ044-MD014-210900-

...Gateway Observations for Charleston International...

CITY           SKY/WX    TMP DP  RH WIND       PRES   REMARKS
Chas Airport   FAIR      48  44  86 NE6       30.31R
Seattle        CLOUDY    50  35  56 S9        30.17R
Charlotte      FAIR      40  36  86 N3        30.35R
Dallas DFW     CLOUDY    58  46  64 S10       30.06F
Dallas Love    CLOUDY    59  47  64 SE10      30.07F
Philladelphia  FAIR      38  25  59 W5        30.44R WCI  34
Wash National  FAIR      44  27  51 NE6       30.46R
Baltimore      FAIR      36  27  69 CALM      30.45R
Miami          FAIR      74  66  76 E5        30.06F
Detroit        FAIR      37  27  67 CALM      30.47R
Newark         FAIR      38  25  59 W7        30.39R WCI  33
Laguardia      FAIR      42  26  53 NW10      30.38R
J F K          FAIR      39  25  57 NW12      30.39R WCI  32
Boston Logan   FAIR      39  27  62 W14       30.27R WCI  31
Ft. Lauderdale FAIR      76  69  79 SE7       30.06S
Chicago O`Hare CLOUDY    40  21  46 CALM      30.42F
Chicago Midway CLOUDY    42  20  41 E5        30.44S
Houston Bush   CLOUDY    60  55  83 E9        30.04F
Houston Hobby  CLOUDY    65  62  90 E10       30.02F
Nashville      FAIR      47  30  51 CALM      30.31F
Atlanta        FAIR      50  36  58 E6        30.29R

$$

GAZ044-118-TXZ119-213-NCZ071-DCZ001-MDZ014-506-PAZ021-071-NJZ106-
NYZ176-178-MAZ106-OHZ011-021-055-MIZ076-KYZ091-ILZ014-INZ047-
MNZ060-ONZ431-210900-

...Gateway Observations for Savannah International...

CITY           SKY/WX    TMP DP  RH WIND       PRES   REMARKS
Savannah Arpt  FAIR      50  47  89 NE6       30.28R
Atlanta        FAIR      50  36  58 E6        30.29R
Charlotte      FAIR      40  36  86 N3        30.35R
Dallas DFW     CLOUDY    58  46  64 S10       30.06F
Houston Bush   CLOUDY    60  55  83 E9        30.04F
Wash National  FAIR      44  27  51 NE6       30.46R
Wash Dulles    FAIR      39  29  67 E7        30.45R WCI  34
Baltimore      FAIR      36  27  69 CALM      30.45R
Philadelphia   FAIR      38  25  59 W5        30.44R WCI  34
Newark         FAIR      38  25  59 W7        30.39R WCI  33
Laguardia      FAIR      42  26  53 NW10      30.38R
J F K          FAIR      39  25  57 NW12      30.39R WCI  32
Boston         FAIR      39  27  62 W14       30.27R WCI  31
Pittsburg      FAIR      31  23  72 CALM      30.43R
Akron          FAIR      34  20  56 NE3       30.44R
Cleveland      FAIR      30  23  75 CALM      30.48R
Cincinnati     FAIR      43  27  53 E9        30.41S
Columbus       FAIR      36  23  60 NE6       30.45R WCI  31
Detroit        FAIR      37  27  67 CALM      30.47R
Chicago O`Hare CLOUDY    40  21  46 CALM      30.42F
Minneapolis    MOCLDY    37  28  70 CALM      30.41S
Indianapolis   FAIR      43  24  47 E7        30.40F
Toronto Canada CLEAR     32  21  64 NW5       30.44S WCI  27

$$




USA.gov is the U.S. government's official web portal to all federal, state and local government web resources and services.